Location: Newark
(13.8117°N, 3.6025°W)
Time: 23:24:43
(UTC+00:00)

Explorer 11/Cluster Stage 4 - Pass Details

Date: 29 August 2019
Orbit: 467 x 1260 km, 28.8° (Epoch: 21 September)

Event Time Altitude Azimuth Distance (km) Brightness Sun altitude
Rises 08:25:03 0° 280° (W) 3,511 9.4 33.5°
Reaches altitude 10° 08:27:50 10° 292° (WNW) 2,699 9.0 34.2°
Maximum altitude 08:33:35 29° 350° (N) 1,863 8.7 35.6°
Drops below altitude 10° 08:40:11 10° 48° (NE) 3,123 10.4 37.2°
Sets 08:43:40 0° 59° (ENE) 4,153 11.0 38.0°
